Location: Gunung Kajang
(2.4167°N, 113.7167°E)
Time: 23:08:23
(UTC+00:00)

ARIANE 44L R/B - Pass Details

Date: 29 May 2022
Orbit: 330 x 33889 km, 7.1° (Epoch: 24 June)

Event Time Altitude Azimuth Distance (km) Brightness Sun altitude
Rises 13:24:07 0° 263° (W) 14,308 10.0 -40.2°
Reaches altitude 10° 13:35:08 10° 263° (W) 15,917 10.1 -42.5°
Drops below altitude 10° 19:05:16 10° 273° (W) 36,293 11.1 -43.5°
Maximum altitude 22:28:30 82° 4° (N) 1,318 4.4 2.3°
Sets 22:33:57 0° 93° (E) 2,670 7.2 3.5°
